TimePDT,TemperatureF,Dew PointF,Humidity,Sea Level PressureIn,VisibilityMPH,Wind Direction,Wind SpeedMPH,Gust SpeedMPH,PrecipitationIn,Events,Conditions,WindDirDegrees,DateUTC
12:56 AM,37.9,28.9,70,30.17,10.0,Calm,Calm,-,N/A,,Clear,0,2012-10-28 07:56:00
1:56 AM,35.1,28.0,76,30.18,10.0,Calm,Calm,-,N/A,,Clear,0,2012-10-28 08:56:00
2:56 AM,34.0,28.0,79,30.18,10.0,Calm,Calm,-,N/A,,Clear,0,2012-10-28 09:56:00
3:56 AM,33.1,27.0,78,30.18,10.0,Calm,Calm,-,N/A,,Clear,0,2012-10-28 10:56:00
4:56 AM,33.1,28.0,82,30.19,10.0,East,4.6,-,N/A,,Clear,90,2012-10-28 11:56:00
5:56 AM,32.0,28.0,85,30.20,10.0,Calm,Calm,-,N/A,,Clear,0,2012-10-28 12:56:00
6:56 AM,28.9,26.1,89,30.23,10.0,Calm,Calm,-,N/A,,Clear,0,2012-10-28 13:56:00
7:56 AM,32.0,28.0,85,30.24,10.0,East,5.8,-,N/A,,Clear,100,2012-10-28 14:56:00
8:56 AM,41.0,30.0,65,30.22,10.0,Calm,Calm,-,N/A,,Clear,0,2012-10-28 15:56:00
9:56 AM,45.0,30.9,58,30.21,10.0,SSW,3.5,-,N/A,,Clear,210,2012-10-28 16:56:00
10:56 AM,51.1,32.0,48,30.18,10.0,Variable,3.5,-,N/A,,Clear,0,2012-10-28 17:56:00
11:56 AM,57.0,34.0,42,30.14,10.0,SW,6.9,-,N/A,,Clear,220,2012-10-28 18:56:00
12:56 PM,62.1,36.0,38,30.10,10.0,Variable,4.6,-,N/A,,Clear,0,2012-10-28 19:56:00
1:56 PM,64.9,36.0,34,30.07,10.0,West,8.1,-,N/A,,Clear,270,2012-10-28 20:56:00
2:56 PM,66.0,36.0,33,30.06,10.0,WSW,9.2,-,N/A,,Clear,250,2012-10-28 21:56:00
3:56 PM,64.9,35.1,33,30.06,10.0,WSW,6.9,-,N/A,,Clear,250,2012-10-28 22:56:00
4:56 PM,63.0,34.0,34,30.07,10.0,WSW,8.1,-,N/A,,Clear,250,2012-10-28 23:56:00
5:56 PM,59.0,35.1,41,30.08,10.0,Calm,Calm,-,N/A,,Clear,0,2012-10-29 00:56:00
7:56 PM,48.0,36.0,63,30.13,10.0,Calm,Calm,-,N/A,,Clear,0,2012-10-29 02:56:00
8:56 PM,43.0,35.1,74,30.14,10.0,Calm,Calm,-,N/A,,Clear,0,2012-10-29 03:56:00
9:56 PM,42.1,32.0,67,30.13,10.0,Calm,Calm,-,N/A,,Clear,0,2012-10-29 04:56:00
10:56 PM,37.9,32.0,79,30.12,10.0,Calm,Calm,-,N/A,,Clear,0,2012-10-29 05:56:00
11:56 PM,34.0,30.0,85,30.13,10.0,Calm,Calm,-,N/A,,Clear,0,2012-10-29 06:56:00